Starlink 31987

operational
NORAD ID: 60017 Int'l Des: 2024-111 Owner: SPXS Country: US Constellation: starlink
LEOCIRCULAR

About Starlink 31987

Description loading...

Live Position

Loading 3D Globe...

Upcoming Passes

Altitude History

Altitude vs Time

uPlot chart will show altitude changes over time

Two-Line Element Set

1 60017U 24111B 25305.30508432 -.00001069 00000-0 -23973-4 0 9999
2 60017 53.1608 312.2157 0001358 83.5069 276.6086 15.30197494 79338
Epoch: Nov 1, 2025 • Age: 23 hours

Current Status

Altitude 494.6 km
Velocity 7.62 km/s
Sub-Earth Point -53.07°S, 86.55°E
Launch Date Jun 8, 2024
Age 1.4 years
Type internet

Technical Details

Classification Payload
Mass 730.00 kg
Dry Mass 700.00 kg
Total Mass 730.00 kg
Length 0.30 m
Diameter 4.10 m
Span 29.00 m
Shape Box + pan
Manufacturer SPXS
Bus Type Starlink V2M
Phase Status In Orbit
Owner/State SPXS/US

Large Constellations

Loading constellations...